Home > Weather > Lethbridge > Past weeks

Flag for Canada Past Weather in Lethbridge, Alberta, Canada — Yesterday and Last 2 Weeks

Now
81 °F

Scattered clouds.


Feels Like: 79 °F
Forecast: 51 / 83 °F
Wind: 8 mph from Southeast

Location: Lethbridge

Current Time: Aug 29, 2016 at 7:33:17 PM

Latest Report: Aug 29, 2016 at 7:00 PM


Visibility: 25 mi

Pressure: 30.06 "Hg (27.21 "Hg at 872m altitude)

Humidity: 28%

Dew Point: 45 °F

Location of LethbridgeLocation

Past Weather in Lethbridge — Graph

°F

Lethbridge Temperature Yesterday

Maximum temperature yesterday: 63 °F (at 4:00 PM)
Minimum temperature yesterday: 45 °F (at 3:00 AM)
Average temperature yesterday: 53 °F

High & Low Weather Summary for the Past Weeks

 TemperatureHumidityPressure
High90 °F (Aug 16, 4:00 PM)100% (Aug 18, 7:00 AM)30.38 "Hg (Aug 18, 7:00 AM)
Low37 °F (Aug 29, 7:00 AM)15% (Aug 21, 3:00 PM)29.48 "Hg (Aug 22, 3:00 AM)
Average61 °F62%30.03 "Hg
* Reported Aug 14 6:00 PM — Aug 29 6:00 PM, Lethbridge, Weather by CustomWeather, © 2016

Note: Actual official high and low records may vary slightly from our data, if they occured in-between our weather recording intervals... More about our weather records

Advertising

Lethbridge Weather History for the Previous 24 Hours

Scroll right to see more
 ConditionsComfort  
Time TempWeatherWind HumidityBarometerVisibility
6:00 PM
Mon, Aug 29
84 °FPartly sunny.9 mph25%30.06 "Hg25 mi
5:00 PM86 °FPartly sunny.7 mph20%30.08 "Hg25 mi
4:00 PM82 °FPartly sunny.6 mph23%30.09 "Hg25 mi
3:00 PM82 °FPartly sunny.8 mph23%30.11 "Hg25 mi
2:00 PM79 °FPartly sunny.7 mph24%30.13 "Hg40 mi
1:00 PM77 °FPartly sunny.6 mph30%30.16 "Hg40 mi
12:00 PM73 °FPartly sunny.6 mph33%30.18 "Hg40 mi
11:00 AM68 °FPartly sunny.7 mph46%30.20 "Hg40 mi
10:00 AM63 °FPartly sunny.13 mph56%30.22 "Hg40 mi
9:00 AM55 °FPartly sunny.8 mph67%30.24 "Hg40 mi
8:00 AM46 °FPartly sunny.5 mph87%30.25 "Hg40 mi
7:00 AM37 °FPassing clouds.13 mph93%30.26 "Hg40 mi
6:00 AM39 °FPassing clouds.3 mph100%30.26 "Hg40 mi
5:00 AM41 °FClear.9 mph93%30.25 "Hg9 mi
4:00 AM41 °FClear.12 mph100%30.25 "Hg9 mi
3:00 AM43 °FPassing clouds.5 mph93%30.26 "Hg9 mi
2:00 AM43 °FPassing clouds.3 mph93%30.27 "Hg9 mi
1:00 AM43 °FClear.9 mph93%30.27 "Hg9 mi
12:00 AM45 °FPassing clouds.13 mph93%30.27 "Hg9 mi
11:00 PM
Sun, Aug 28
50 °FClear.6 mph82%30.26 "Hg9 mi
10:00 PM50 °FPassing clouds.No wind76%30.26 "Hg15 mi
9:00 PM54 °FBroken clouds.7 mph67%30.24 "Hg40 mi
8:00 PM57 °FBroken clouds.5 mph59%30.21 "Hg40 mi
7:00 PM61 °FPartly sunny.3 mph48%30.19 "Hg40 mi
Weather by CustomWeather, © 2016

See weather overviewHow to use our weather pages